Regional Weather Roundup
Issued by NWS

Home | Current Version | Previous Version | Graphics & Text | Print | Product List | Glossary On
Versions: 1 2 3 4 5 6 7 8 9 10 11 12 13 14 15 16 17 18 19 20 21 22 23 24 25 26 27
000
ASUS45 KBOU 230807
RWRCO

WEATHER ROUNDUP FOR COLORADO
NATIONAL WEATHER SERVICE DENVER/BOULDER CO
200 AM MDT SUN APR 23 2017

NOTE: "FAIR" INDICATES FEW OR NO CLOUDS BELOW 12000 FEET WITH NO
SIGNIFICANT WEATHER AND/OR OBSTRUCTIONS TO VISIBILITY.

COZ001>005-013-030-031-230900-
...NORTHWEST COLORADO...

CITY           SKY/WX    TMP DP  RH WIND       PRES   REMARKS
CRAIG          FAIR      32  26  78 CALM      30.13F
HAYDEN         FAIR      36  21  55 E10       30.13F
MEEKER         FAIR      34  26  72 E7        30.14S WCI  28
MOUNT WERNER   NOT AVBL
STEAMBOAT SPGS FAIR      33  24  70 CALM      30.16S
WALDEN           N/A     30  23  74 SE9       30.17F WCI  22
$$

COZ006>008-011-230900-
...WEST CENTRAL VALLEYS...

CITY           SKY/WX    TMP DP  RH WIND       PRES   REMARKS
GRAND JUNCTION FAIR      50  21  32 E13       30.08F
MONTROSE       FAIR      42  21  43 S8        30.14F
EAGLE          FAIR      33  23  66 SE5       30.20S WCI  29
RIFLE          FAIR      36  27  69 SE5       30.13F
DELTA          FAIR      42  19  38 NE7       30.13F
NUCLA          NOT AVBL
$$

COZ017>023-064>068-230900-
...SOUTHWEST COLORADO...

CITY           SKY/WX    TMP DP  RH WIND       PRES   REMARKS
DURANGO        FAIR      33  19  56 N5        30.21R WCI  29
CORTEZ         FAIR      31  21  66 CALM      30.15F
PAGOSA SPRINGS FAIR      32  21  63 CALM      30.26S
TELLURIDE      FAIR      42  16  34 SE3       30.26F
WOLF CREEK PAS FAIR      28  14  54 S20G26    30.40S WCI  15
$$

COZ009-010-012-014-032>034-037-058>063-230900-
...CENTRAL COLORADO...

CITY           SKY/WX    TMP DP  RH WIND       PRES   REMARKS
ASPEN          FAIR      28  20  71 S6        30.18F WCI  22
BUENA VISTA    FAIR      29  24  81 CALM      30.25F
COPPER MTN     FAIR      34   7  32 MISG      30.31S
BERTHOUD PASS  FAIR      23  12  63 NW15      30.28F WCI  10
COTTONWOOD PAS FAIR      32  28  86 CALM      30.27F
GUNNISON       FAIR      32  22  66 N6        30.24F WCI  26
KREMMLING      FAIR      34  30  86 CALM      30.20F
LEADVILLE      FAIR      22  18  85 NE7       30.26F WCI  13
MONARCH PASS   FAIR      27  18  69 SW29      30.43S WCI  11
SALIDA         FAIR      33  26  76 SW3       30.32F
SUNLIGHT       FAIR      28  18  64 SW17G28   30.30F WCI  16
WILKERSON PASS MOCLDY    25  23  93 SW20G26   30.26F FOG     WCI  11
$$

COZ069>075-230900-
...SAN LUIS VALLEY/SANGRE DE CRISTO MOUNTAINS...

CITY           SKY/WX    TMP DP  RH WIND       PRES   REMARKS
ALAMOSA        FAIR      32  24  72 CALM      30.24S
LA VETA PASS   FAIR      28  27  93 SW29G37   30.36F WCI  13
SAGUACHE       FAIR      28  18  64 N3        30.26F
$$

COZ035-036-038>040-230900-
...NORTHERN COLORADO FRONT RANGE...

CITY           SKY/WX    TMP DP  RH WIND       PRES   REMARKS
DENVER INTL AP FAIR      43  31  62 S21       30.08F
DMNS CITY PARK   N/A     45  30  55 E12       30.06F
AURORA         CLEAR     43  30  59 S23G32    30.08F
FRONT RANGE AP FAIR      45  32  61 S18G25    30.10F
ERIE MUNI ARPT FAIR      38  33  82 CALM      30.08F
BOULDER MUN AP FAIR      41  32  70 CALM      30.07F
CENTENNIAL     FAIR      42  31  64 S16       30.10F
BROOMFIELD     FAIR      43  32  65 S7        30.08F
FORT COLLINS   FAIR      40  33  76 CALM      30.08F
LONGMONT       FAIR      39  32  77 CALM      30.09F
$$

COZ041-046-047-076>085-087-088-230900-
...PIKES PEAK/PALMER DIVIDE AND SOUTHERN FOOTHILLS...

CITY           SKY/WX    TMP DP  RH WIND       PRES   REMARKS
COLO. SPRINGS  FAIR      38  31  76 SE12      30.19F
A. F. ACADEMY  FAIR      35  29  81 CALM      30.17F
SCHRIEVER AFB  FAIR      33  31  90 S8        30.20F WCI  26
ELLICOTT       FAIR     N/A N/A N/A S12       30.19F
FALCON         FAIR      34  31  88 S9        30.20F WCI  26
FORT CARSON    FAIR      40  31  68 S10       30.18F
LIMON          FAIR      37  34  89 S10       30.18F
MONUMENT HILL  FAIR      34  28  80 S20       30.17F WCI  22
TRINIDAD       FAIR      36  30  79 SW10      30.22F
$$

COZ042>045-048>051-090-091-230900-
...NORTHEAST COLORADO...

CITY           SKY/WX    TMP DP  RH WIND       PRES   REMARKS
GREELEY ARPT   FAIR      38  35  89 E7        30.09F
AKRON          FAIR      40  31  70 S14       30.13F
BURLINGTON     NOT AVBL
WRAY           NOT AVBL
STERLING       FAIR      37  32  81 SW8       30.12F
HOLYOKE        FAIR      41  34  75 S13       30.17F
FORT MORGAN    FAIR      38  33  80 SE7       30.13F
$$

COZ086-089-092>099-230900-
...SOUTHEAST COLORADO...

CITY           SKY/WX    TMP DP  RH WIND       PRES   REMARKS
PUEBLO         FAIR      40  34  79 NE3       30.19F
LA JUNTA       FAIR      44  33  65 S9        30.21F
LAMAR          FAIR      41  33  73 S12       30.21F
SPRINGFIELD      N/A     30  27  88 SW8       30.25F WCI  22
$$




USA.gov is the U.S. government's official web portal to all federal, state and local government web resources and services.